Location: Goettingen
(51.5300°N, 9.9433°E)
Time: 19:49:38
(UTC+02:00)

ISS - Pass Details

Date: 21 May 2018
Orbit: 402 x 407 km, 51.6° (Epoch: 25 May)

Event Time Altitude Azimuth Distance (km) Brightness Sun altitude
Rises 22:15:28 0° 210° (SSW) 2,309 -0.2 -8.0°
Reaches altitude 10° 22:17:54 10° 192° (SSW) 1,453 -1.4 -8.2°
Maximum altitude 22:20:18 19° 144° (SE) 1,022 -2.4 -8.5°
Drops below altitude 10° 22:22:44 10° 96° (E) 1,458 -1.4 -8.7°
Sets 22:25:10 0° 78° (ENE) 2,320 -0.3 -8.9°
